Location: Cerda�ola
(41.4919°N, 2.1403°E)
Time: 20:53:03
(UTC+00:00)

STARLINK-1109 - Pass Details

Date: 29 March 2020
Orbit: 548 x 551 km, 53.0° (Epoch: 30 May)

Event Time Altitude Azimuth Distance (km) Brightness Sun altitude
Rises 19:58:51 0° 307° (NW) 2,725 8.6 -19.7°
Reaches altitude 10° 20:01:05 10° 307° (NW) 1,828 7.4 -20.1°
Maximum altitude 20:05:15 87° 219° (SW) 555 3.5 -20.8°
Enters shadow 20:05:48 66° 135° (SE) 602 3.5 -20.9°
